#timestamp,LO_Frequency,Hit,StdDev 
1552240815.7,286046999.0,N
1552240835.5,286046997.8,N
1552240855.4,286046998.0,N
1552240875.2,286046998.8,N
1552240895.1,286047001.6,N
1552240896.0,286047001.6,N
1552240915.8,286047004.0,N
1552240935.6,286047001.6,N
1552240955.5,286047000.4,N
1552240975.3,286046999.1,N
1552240995.1,286046995.0,N
1552241015.9,286047000.6,N
1552241035.7,286047003.3,N
1552241055.6,286047003.8,N
1552241075.4,286047004.2,N
1552241095.2,286047005.7,N
1552241115.1,286047007.0,N
1552241116.0,286047007.0,N
1552241135.8,286047008.6,N
1552241155.7,286047010.2,N
1552241175.5,286047007.8,N
1552241195.3,286047008.6,N
1552241215.2,286047008.2,N
1552241235.9,286047008.9,N
1552241255.7,286047010.2,N
1552241275.6,286047012.0,N
1552241295.4,286047011.3,N
1552241315.2,286047008.5,N
1552241335.1,286047004.8,N
1552241336.0,286047004.8,N
1552241355.8,286047003.9,N
1552241375.7,286047004.9,N
1552241395.5,286047005.8,N
1552241415.3,286047002.6,N
1552241435.2,286047001.2,N
1552241455.0,286046998.4,N
1552241455.9,286046998.4,N
1552241475.7,286046996.7,N
1552241495.6,286046997.2,N
1552241515.4,286046996.5,N
1552241535.3,286046998.0,N
1552241555.1,286046998.0,N
1552241575.8,286046998.7,N
1552241595.7,286047001.8,N
1552241615.5,286047004.0,N
1552241635.4,286047001.8,N
1552241655.2,286047000.8,N
1552241675.0,286046997.8,N
1552241675.9,286046997.8,N
1552241695.8,286046993.5,N
1552241715.6,286046994.1,N
1552241735.4,286046992.9,N
1552241755.3,286046994.0,N
1552241775.1,286046993.5,N
1552241795.9,286046993.6,N
1552241815.7,286046996.4,N
1552241835.5,286046993.4,N
1552241855.4,286046995.5,N
1552241875.2,286046993.6,N
1552241895.0,286046996.2,N
1552241896.0,286046996.2,N
1552241915.8,286046993.5,N
1552241935.6,286046993.4,N
1552241955.5,286046993.4,N
1552241975.3,286046996.4,N
1552241995.1,286046994.8,N
1552242015.9,286046993.4,N
1552242035.7,286046993.7,N
1552242055.5,286046993.9,N
1552242075.4,286046995.8,N
1552242095.2,286046998.0,N
1552242115.1,286046997.5,N
1552242116.0,286046997.5,N
1552242135.8,286046997.7,N
1552242155.6,286046995.8,N
1552242175.5,286046997.9,N
1552242195.3,286046999.2,N
1552242215.4,286046996.7,N
1552242235.2,286046998.0,N
1552242255.0,286046995.9,N
1552242255.9,286046995.9,N
1552242275.1,286046996.8,N
1552242276.0,286046996.8,N
1552242295.8,286046994.9,N
1552242315.6,286046996.8,N
1552242335.5,286046996.6,N
1552242355.3,286046997.3,N
1552242375.2,286046996.9,N
1552242395.0,286046997.2,N
1552242395.9,286046997.2,N
1552242415.8,286046995.0,Y
1552242435.6,286046998.4,P
1552242455.4,286047000.1,N
1552242475.3,286047004.4,N
1552242495.1,286047005.3,N
1552242496.0,286047005.3,N
1552242515.8,286047005.1,N
1552242535.7,286047007.5,N
1552242555.5,286047006.5,N
1552242575.4,286047010.7,N
1552242595.2,286047014.4,Y
1552242615.0,286047018.3,P
1552242615.9,286047018.3,N
1552242635.8,286047019.5,N
1552242655.6,286047019.1,N
1552242675.4,286047020.8,Y
1552242695.3,286047008.0,P
1552242715.1,286047007.2,N
1552242735.9,286047004.4,N
1552242755.7,286047000.9,N
1552242775.5,286047000.9,N
1552242795.4,286047008.3,N
1552242815.2,286047009.5,N
1552242835.0,286047013.3,N
1552242835.9,286047013.3,N
1552242855.8,286047018.5,Y
1552242875.6,286047011.2,P
1552242895.5,286047011.2,P
1552242915.3,286047012.9,P
1552242935.1,286047018.0,Y
1552242955.9,286047012.0,P
1552242975.7,286047010.0,P
1552242995.6,286047012.3,P
1552243015.4,286047013.5,Y
1552243035.2,286047003.5,P
1552243055.1,286047002.9,N
1552243056.0,286047002.9,N
1552243075.8,286047001.0,N
1552243095.6,286046993.4,N
1552243115.5,286046992.8,N
1552243135.3,286046987.5,N
1552243155.2,286046982.6,N
1552243175.9,286046979.1,N
1552243195.7,286046977.5,N
1552243215.6,286046977.7,N
1552243235.4,286046976.2,N
1552243255.3,286046980.4,N
1552243275.1,286046981.5,N
1552243276.0,286046981.5,N
1552243295.8,286046981.5,N
1552243315.7,286046983.2,N
1552243335.5,286046980.8,N
1552243355.3,286046975.8,N
1552243375.2,286046974.4,N
1552243395.0,286046973.8,N
1552243395.9,286046973.8,N
1552243415.8,286046971.8,N
1552243435.6,286046969.6,N
1552243455.4,286046972.1,N
1552243475.3,286046974.6,N
1552243495.1,286046977.7,N
1552243515.8,286046981.6,N
1552243535.7,286046979.1,N
1552243555.5,286046979.1,N
1552243575.3,286046976.5,N
1552243595.2,286046975.5,N
1552243615.0,286046973.3,Y
1552243615.9,286046973.3,P
1552243635.8,286046992.3,N
1552243655.6,286046992.9,N
1552243675.4,286046990.2,N
1552243695.3,286046992.9,N
1552243715.1,286046991.8,N
1552243735.8,286046993.2,N
1552243755.7,286046991.1,N
1552243775.5,286046986.9,N
1552243795.4,286046990.0,N
1552243815.2,286046993.0,N
1552243835.0,286046996.2,N
1552243835.9,286046996.2,N
1552243855.8,286046993.4,N
1552243875.6,286046994.3,N
1552243895.5,286046992.3,N
1552243915.3,286046990.7,N
1552243935.1,286046991.4,N
1552243955.9,286046989.0,N
1552243975.7,286046989.9,N
1552243995.5,286046988.1,N
1552244015.4,286046985.7,N
1552244035.2,286046986.7,N
1552244055.1,286046987.5,N
1552244056.0,286046987.5,N
1552244075.8,286046989.2,N
1552244095.6,286046990.3,N
1552244115.5,286046990.7,N
1552244135.3,286046993.2,N
1552244155.1,286046990.2,N
1552244175.9,286046989.3,N
1552244195.7,286046989.7,Y
1552244215.6,286046998.3,P
1552244235.4,286046999.0,N
1552244255.2,286046998.8,N
1552244275.1,286046998.8,N
1552244276.0,286046998.8,N
1552244295.8,286047001.1,N
1552244315.6,286047003.1,N
1552244335.5,286047003.5,N
1552244355.3,286047002.0,N
1552244375.2,286047000.1,N
1552244395.9,286046999.7,N
